sat.trackr.live / text

‹ back to catalog

SHIYAN-6 01 (SY-6 01)

NORAD 43711 · 2018-094B

PAYLOAD ACTIVE UNKNOWN

§ Identity

Operator
Country
PRC
Launch date
2018-11-19
Launch site
JSC
Launch vehicle
Mass (kg)
RCS (m²)

External: N2YO · Heavens-Above · Gunter

§ Orbital elements

Epoch: 2026-05-25T00:05:04.248960Z

Period
94.15 min
Inclination
97.3601°
Eccentricity
0.0011523
Mean motion
15.29430443 rev/d
Perigee alt
469.6 km
Apogee alt
485.4 km
Semi-major
6,855.7 km
B*
1.4954e-4
RAAN
159.3679°
Arg perigee
224.9478°
Mean anomaly
135.0830°
Rev number
41,794

§ Raw data

SHIYAN-6 01 (SY-6 01)1 43711U 18094B   26145.00352140  .00004198  00000+0  14954-3 0  99982 43711  97.3601 159.3679 0011523 224.9478 135.0830 15.29430443417942

JSON: /api/v1/satellites/43711 · /tle

For live sub-satellite position, see the globe view (requires WebGL).

§ Visibility from observer

Set your observer location to see the next 7 days of passes ≥ 10°. The values pass through the URL so the page stays shareable.

No JS? Fill the form by hand. The geolocation button needs JavaScript.